| time (UTC) | temp C | wind direction | speed KPH | gust KPH | rain 1hr cm | rain 24hr cm | rain mn cm | humidity % | barometer mb |
| 20260507133207 | 20 | 113 | 8.0 | 19.3 | 0.00 | 0.00 | 0.00 | 55 | 1010.2 |
| 20260507130707 | 20 | 118 | 1.6 | 19.3 | 0.00 | 0.00 | 0.00 | 52 | 1010.5 |
| 20260507113707 | 20 | 118 | 3.2 | 19.3 | 0.00 | 0.00 | 0.00 | 55 | 1011.2 |
| 20260507110707 | 19 | 176 | 0.0 | 4.8 | 0.00 | 0.00 | 0.00 | 58 | 1011.7 |
| 20260507103706 | 18 | 117 | 3.2 | 9.7 | 0.00 | 0.00 | 0.00 | 62 | 1012.1 |
| 20260507103207 | 18 | 190 | 3.2 | 14.5 | 0.00 | 0.00 | 0.00 | 62 | 1012.2 |
| 20260507093207 | 17 | 122 | 1.6 | 9.7 | 0.00 | 0.00 | 0.00 | 66 | 1012.6 |
| 20260507090708 | 17 | 68 | 0.0 | 4.8 | 0.00 | 0.00 | 0.00 | 69 | 1012.4 |
| 20260507083707 | 16 | 93 | 3.2 | 8.0 | 0.00 | 0.00 | 0.00 | 71 | 1012.6 |
| 20260507080707 | 15 | 78 | 0.0 | 0.0 | 0.00 | 0.00 | 0.00 | 74 | 1012.9 |
| 20260507073207 | 14 | 117 | 0.0 | 0.0 | 0.00 | 0.00 | 0.00 | 75 | 1013.2 |
| 20260507063207 | 11 | 252 | 0.0 | 0.0 | 0.00 | 0.00 | 0.00 | 82 | 1012.8 |
| 20260507053206 | 7 | 229 | 0.0 | 0.0 | 0.00 | 0.00 | 0.00 | 85 | 1012.5 |
| 20260507050706 | 6 | 270 | 0.0 | 0.0 | 0.00 | 0.00 | 0.00 | 85 | 1012.5 |
| 20260507043706 | 6 | 227 | 0.0 | 0.0 | 0.00 | 0.00 | 0.00 | 85 | 1012.3 |
| 20260507040706 | 6 | 257 | 0.0 | 0.0 | 0.00 | 0.00 | 0.00 | 85 | 1012.4 |
| 20260507033707 | 6 | 264 | 0.0 | 0.0 | 0.00 | 0.00 | 0.00 | 85 | 1012.3 |
| 20260507023706 | 6 | 253 | 0.0 | 0.0 | 0.00 | 0.00 | 0.00 | 84 | 1012.2 |
| 20260507023206 | 6 | 256 | 0.0 | 0.0 | 0.00 | 0.00 | 0.00 | 84 | 1012.3 |
| 20260507020706 | 7 | 262 | 0.0 | 0.0 | 0.00 | 0.00 | 0.00 | 84 | 1012.2 |
| 20260507010206 | 7 | 263 | 0.0 | 0.0 | 0.00 | 0.00 | 0.00 | 84 | 1012.4 |
| 20260507000706 | 7 | 291 | 0.0 | 0.0 | 0.00 | 0.00 | 0.00 | 83 | 1012.8 |
| 20260506223706 | 9 | 291 | 0.0 | 0.0 | 0.00 | 0.03 | 0.00 | 82 | 1012.6 |
| 20260506223206 | 10 | 291 | 0.0 | 0.0 | 0.00 | 0.03 | 0.00 | 82 | 1012.5 |
| 20260506213205 | 11 | 291 | 0.0 | 0.0 | 0.00 | 0.03 | 0.03 | 80 | 1012.3 |
| 20260506210205 | 11 | 291 | 0.0 | 0.0 | 0.00 | 0.03 | 0.03 | 79 | 1011.8 |
| 20260506193705 | 13 | 292 | 0.0 | 0.0 | 0.00 | 0.15 | 0.03 | 73 | 1010.7 |
| 20260506193205 | 13 | 262 | 0.0 | 0.0 | 0.00 | 0.15 | 0.03 | 73 | 1010.6 |
| 20260506190705 | 14 | 263 | 0.0 | 0.0 | 0.00 | 0.15 | 0.03 | 66 | 1010.1 |
| 20260506183705 | 17 | 254 | 0.0 | 0.0 | 0.00 | 0.15 | 0.03 | 56 | 1009.4 |
| 20260506183206 | 17 | 253 | 0.0 | 1.6 | 0.00 | 0.15 | 0.03 | 56 | 1009.4 |
| 20260506180205 | 20 | 235 | 0.0 | 4.8 | 0.00 | 0.46 | 0.03 | 46 | 1008.9 |
| 20260506173705 | 20 | 261 | 1.6 | 14.5 | 0.00 | 0.61 | 0.03 | 46 | 1008.8 |
| 20260506163205 | 20 | 267 | 9.7 | 22.5 | 0.00 | 0.69 | 0.03 | 43 | 1009.0 |
| 20260506160705 | 20 | 260 | 9.7 | 19.3 | 0.00 | 0.69 | 0.03 | 46 | 1009.0 |
| 20260506160205 | 20 | 214 | 1.6 | 25.7 | 0.00 | 0.69 | 0.03 | 46 | 1008.9 |
| 20260506153704 | 20 | 253 | 6.4 | 16.1 | 0.00 | 0.69 | 0.03 | 47 | 1008.8 |